Location: Cudham
(51.3000°N, 0.0667°E)
Time: 21:05:54
(UTC+00:00)

USA 245 - Pass Details

Date: 19 May 2025
Orbit: 292 x 1030 km, 97.9° (Epoch: 02 June)

Event Time Altitude Azimuth Distance (km) Brightness Sun altitude
Exits shadow 20:37:31 - 151° (SSE) 2,230 5.8 -6.5°
Reaches altitude 10° 20:38:04 10° 150° (SSE) 2,011 5.6 -6.6°
Maximum altitude 20:42:27 63° 70° (ENE) 825 4.1 -7.1°
Drops below altitude 10° 20:47:55 10° 351° (N) 2,495 7.6 -7.7°
Sets 20:50:34 0° 348° (NNW) 3,539 8.5 -8.0°
